sat.trackr.live / text

‹ back to catalog

STARLINK-32005

NORAD 60034 · 2024-111U

PAYLOAD ACTIVE UNKNOWN

§ Identity

Operator
Country
US
Launch date
2024-06-08
Launch site
AFETR
Launch vehicle
Mass (kg)
RCS (m²)

Purposes: comms

External: N2YO · Heavens-Above · Gunter

§ Orbital elements

Epoch: 2026-05-25T02:27:50.605056Z

Period
94.11 min
Inclination
53.1603°
Eccentricity
0.0001205
Mean motion
15.30193952 rev/d
Perigee alt
474.4 km
Apogee alt
476.1 km
Semi-major
6,853.4 km
B*
2.3566e-5
RAAN
80.6243°
Arg perigee
87.5150°
Mean anomaly
272.5989°
Rev number
11,063

§ Raw data

STARLINK-320051 60034U 24111U   26145.10266904  .00000339  00000+0  23566-4 0  99982 60034  53.1603  80.6243 0001205  87.5150 272.5989 15.30193952110631

JSON: /api/v1/satellites/60034 · /tle

For live sub-satellite position, see the globe view (requires WebGL).

§ Visibility from observer

Set your observer location to see the next 7 days of passes ≥ 10°. The values pass through the URL so the page stays shareable.

No JS? Fill the form by hand. The geolocation button needs JavaScript.